Date,TemperatureHighF,TemperatureAvgF,TemperatureLowF,DewpointHighF,DewpointAvgF,DewpointLowF,HumidityHigh,HumidityAvg,HumidityLow,PressureMaxIn,PressureMinIn,WindSpeedMaxMPH,WindSpeedAvgMPH,GustSpeedMaxMPH,PrecipitationSumIn
2013-1-1,26,19,11,-100,-100,-100,0,0,100,0.00,40.00,0,-999,0,0.00
2013-1-2,22,14,7,-100,-100,-100,0,0,100,0.00,40.00,0,-999,0,0.00
2013-1-3,30,24,15,-100,-100,-100,0,0,100,0.00,40.00,0,-999,0,0.00
2013-1-4,30,21,12,-100,-100,-100,0,0,100,0.00,40.00,0,-999,0,0.00
2013-1-5,32,25,17,-100,-100,-100,0,0,100,0.00,40.00,0,-999,0,0.00
2013-1-6,34,26,18,-100,-100,-100,0,0,100,0.00,40.00,0,-999,0,0.00
2013-1-7,36,25,14,-100,-100,-100,0,0,100,0.00,40.00,0,-999,0,0.00
2013-1-8,41,31,25,-100,-100,-100,0,0,100,0.00,40.00,0,-999,0,0.00
2013-1-9,44,37,26,-100,-100,-100,0,0,100,0.00,40.00,0,-999,0,0.00
2013-1-10,41,32,24,-100,-100,-100,0,0,100,0.00,40.00,0,-999,0,0.00
2013-1-11,52,49,41,-100,-100,-100,0,0,100,0.00,40.00,0,-999,0,0.00
2013-1-12,52,44,32,-100,-100,-100,0,0,100,0.00,40.00,0,-999,0,0.00
2013-1-13,32,26,14,-100,-100,-100,0,0,100,0.00,40.00,0,-999,0,0.00
2013-1-14,21,16,10,-100,-100,-100,0,0,100,0.00,40.00,0,-999,0,0.00
2013-1-15,28,21,14,-100,-100,-100,0,0,100,0.00,40.00,0,-999,0,0.00
2013-1-16,34,24,16,-100,-100,-100,0,0,100,0.00,40.00,0,-999,0,0.00
2013-1-17,31,26,18,-100,-100,-100,0,0,100,0.00,40.00,0,-999,0,0.00
2013-1-18,38,30,16,-100,-100,-100,0,0,100,0.00,40.00,0,-999,0,0.00
2013-1-19,47,39,35,-100,-100,-100,0,0,100,0.00,40.00,0,-999,0,0.00
2013-1-20,36,20,14,-100,-100,-100,0,0,100,0.00,40.00,0,-999,0,0.00
2013-1-21,14,10,4,-100,-100,-100,0,0,100,0.00,40.00,0,-999,0,0.00
2013-1-22,12,8,3,-100,-100,-100,0,0,100,0.00,40.00,0,-999,0,0.00
2013-1-23,21,16,10,-100,-100,-100,0,0,100,0.00,40.00,0,-999,0,0.00
2013-1-24,21,15,7,-100,-100,-100,0,0,100,0.00,40.00,0,-999,0,0.00
2013-1-25,29,23,18,-100,-100,-100,0,0,100,0.00,40.00,0,-999,0,0.00
2013-1-26,30,20,11,-100,-100,-100,0,0,100,0.00,40.00,0,-999,0,0.00
2013-1-27,37,27,21,-100,-100,-100,0,0,100,0.00,40.00,0,-999,0,0.00
2013-1-28,50,45,37,-100,-100,-100,0,0,100,0.00,40.00,0,-999,0,0.00
2013-1-29,59,55,50,-100,-100,-100,0,0,100,0.00,40.00,0,-999,0,0.00
2013-1-30,51,37,22,-100,-100,-100,0,0,100,0.00,40.00,0,-999,0,0.00
2013-1-31,18,15,7,-100,-100,-100,0,0,100,0.00,40.00,0,-999,0,0.00
2013-2-1,16,9,1,-100,-100,-100,0,0,100,0.00,40.00,0,-999,0,0.00
2013-2-2,25,18,10,-100,-100,-100,0,0,100,0.00,40.00,0,-999,0,0.00
2013-2-3,21,16,11,-100,-100,-100,0,0,100,0.00,40.00,0,-999,0,0.00
2013-2-4,28,24,21,-100,-100,-100,0,0,100,0.00,40.00,0,-999,0,0.00
2013-2-5,32,26,18,-100,-100,-100,0,0,100,0.00,40.00,0,-999,0,0.00
2013-2-6,38,32,23,-100,-100,-100,0,0,100,0.00,40.00,0,-999,0,0.00
2013-2-7,43,35,30,-100,-100,-100,0,0,100,0.00,40.00,0,-999,0,0.00
2013-2-8,32,29,25,-100,-100,-100,0,0,100,0.00,40.00,0,-999,0,0.00
2013-2-9,35,30,28,-100,-100,-100,0,0,100,0.00,40.00,0,-999,0,0.00
2013-2-10,47,38,32,-100,-100,-100,0,0,100,0.00,40.00,0,-999,0,0.00
2013-2-11,44,34,29,-100,-100,-100,0,0,100,0.00,40.00,0,-999,0,0.00
2013-2-12,29,27,22,-100,-100,-100,0,0,100,0.00,40.00,0,-999,0,0.00
2013-2-13,44,33,21,-100,-100,-100,0,0,100,0.00,40.00,0,-999,0,0.00
2013-2-14,38,35,32,-100,-100,-100,0,0,100,0.00,40.00,0,-999,0,0.00
2013-2-15,32,28,21,-100,-100,-100,0,0,100,0.00,40.00,0,-999,0,0.00
2013-2-16,21,17,11,-100,-100,-100,0,0,100,0.00,40.00,0,-999,0,0.00
2013-2-17,28,19,9,-100,-100,-100,0,0,100,0.00,40.00,0,-999,0,0.00
2013-2-18,50,39,25,-100,-100,-100,0,0,100,0.00,40.00,0,-999,0,0.00
2013-2-19,30,16,11,-100,-100,-100,0,0,100,0.00,40.00,0,-999,0,0.00
2013-2-20,23,15,7,-100,-100,-100,0,0,100,0.00,40.00,0,-999,0,0.00
2013-2-21,27,24,19,-100,-100,-100,0,0,100,0.00,40.00,0,-999,0,0.00
2013-2-22,33,29,24,-100,-100,-100,0,0,100,0.00,40.00,0,-999,0,0.00
2013-2-23,27,25,23,-100,-100,-100,0,0,100,0.00,40.00,0,-999,0,0.00
2013-2-24,36,25,14,-100,-100,-100,0,0,100,0.00,40.00,0,-999,0,0.00
2013-2-25,40,31,22,-100,-100,-100,0,0,100,0.00,40.00,0,-999,0,0.00
2013-2-26,32,32,30,-100,-100,-100,0,0,100,0.00,40.00,0,-999,0,0.00
2013-2-27,33,32,31,-100,-100,-100,0,0,100,0.00,40.00,0,-999,0,0.00
2013-2-28,35,32,29,-100,-100,-100,0,0,100,0.00,40.00,0,-999,0,0.00
2013-3-1,29,27,25,-100,-100,-100,0,0,100,0.00,40.00,0,-999,0,0.00
2013-3-2,29,26,21,-100,-100,-100,0,0,100,0.00,40.00,0,-999,0,0.00
2013-3-3,34,23,14,-100,-100,-100,0,0,100,0.00,40.00,0,-999,0,0.00
2013-3-4,32,28,21,-100,-100,-100,0,0,100,0.00,40.00,0,-999,0,0.00
2013-3-5,32,31,28,-100,-100,-100,0,0,100,0.00,40.00,0,-999,0,0.00
2013-3-6,32,29,27,-100,-100,-100,0,0,100,0.00,40.00,0,-999,0,0.00
2013-3-7,37,31,26,-100,-100,-100,0,0,100,0.00,40.00,0,-999,0,0.00
2013-3-8,36,28,21,-100,-100,-100,0,0,100,0.00,40.00,0,-999,0,0.00
2013-3-9,40,35,29,-100,-100,-100,0,0,100,0.00,40.00,0,-999,0,0.00
2013-3-10,56,45,39,-100,-100,-100,0,0,100,0.00,40.00,0,-999,0,0.00
2013-3-11,49,41,32,-100,-100,-100,0,0,100,0.00,40.00,0,-999,0,0.00
2013-3-12,36,32,29,-100,-100,-100,0,0,100,0.00,40.00,0,-999,0,0.00
2013-3-13,32,27,23,-100,-100,-100,0,0,100,0.00,40.00,0,-999,0,0.00
2013-3-14,34,29,23,-100,-100,-100,0,0,100,0.00,40.00,0,-999,0,0.00
2013-3-15,44,36,29,-100,-100,-100,0,0,100,0.00,40.00,0,-999,0,0.00
2013-3-16,34,33,30,-100,-100,-100,0,0,100,0.00,40.00,0,-999,0,0.00
2013-3-17,32,30,29,-100,-100,-100,0,0,100,0.00,40.00,0,-999,0,0.00
2013-3-18,36,30,27,-100,-100,-100,0,0,100,0.00,40.00,0,-999,0,0.00
2013-3-19,34,25,18,-100,-100,-100,0,0,100,0.00,40.00,0,-999,0,0.00
2013-3-20,25,20,14,-100,-100,-100,0,0,100,0.00,40.00,0,-999,0,0.00
2013-3-21,33,24,11,-100,-100,-100,0,0,100,0.00,40.00,0,-999,0,0.00
2013-3-22,41,32,21,-100,-100,-100,0,0,100,0.00,40.00,0,-999,0,0.00
2013-3-23,40,30,24,-100,-100,-100,0,0,100,0.00,40.00,0,-999,0,0.00
2013-3-24,34,30,29,-100,-100,-100,0,0,100,0.00,40.00,0,-999,0,0.00
2013-3-25,36,32,27,-100,-100,-100,0,0,100,0.00,40.00,0,-999,0,0.00
2013-3-26,38,33,27,-100,-100,-100,0,0,100,0.00,40.00,0,-999,0,0.00
2013-3-27,41,36,29,-100,-100,-100,0,0,100,0.00,40.00,0,-999,0,0.00
2013-3-28,50,39,26,-100,-100,-100,0,0,100,0.00,40.00,0,-999,0,0.00
2013-3-29,54,41,30,-100,-100,-100,0,0,100,0.00,40.00,0,-999,0,0.00
2013-3-30,55,42,29,-100,-100,-100,0,0,100,0.00,40.00,0,-999,0,0.00
2013-3-31,58,47,37,-100,-100,-100,0,0,100,0.00,40.00,0,-999,0,0.00
2013-4-1,39,31,25,-100,-100,-100,0,0,100,0.00,40.00,0,-999,0,0.00
2013-4-2,43,31,21,-100,-100,-100,0,0,100,0.00,40.00,0,-999,0,0.00
2013-4-3,43,33,22,-100,-100,-100,0,0,100,0.00,40.00,0,-999,0,0.00
2013-4-4,58,41,25,-100,-100,-100,0,0,100,0.00,40.00,0,-999,0,0.00
2013-4-5,45,40,33,-100,-100,-100,0,0,100,0.00,40.00,0,-999,0,0.00
2013-4-6,69,53,32,-100,-100,-100,0,0,100,0.00,40.00,0,-999,0,0.00
2013-4-7,62,51,40,-100,-100,-100,0,0,100,0.00,40.00,0,-999,0,0.00
2013-4-8,70,52,43,-100,-100,-100,0,0,100,0.00,40.00,0,-999,0,0.00
2013-4-9,73,54,42,-100,-100,-100,0,0,100,0.00,40.00,0,-999,0,0.00
2013-4-10,47,41,39,-100,-100,-100,0,0,100,0.00,40.00,0,-999,0,0.00
2013-4-11,52,44,39,-100,-100,-100,0,0,100,0.00,40.00,0,-999,0,0.00
2013-4-12,41,38,36,-100,-100,-100,0,0,100,0.00,40.00,0,-999,0,0.00
2013-4-13,46,38,33,-100,-100,-100,0,0,100,0.00,40.00,0,-999,0,0.00
2013-4-14,70,50,39,-100,-100,-100,0,0,100,0.00,40.00,0,-999,0,0.00
2013-4-15,61,55,47,-100,-100,-100,0,0,100,0.00,40.00,0,-999,0,0.00
2013-4-16,51,46,42,-100,-100,-100,0,0,100,0.00,40.00,0,-999,0,0.00
2013-4-17,53,46,41,-100,-100,-100,0,0,100,0.00,40.00,0,-999,0,0.00
2013-4-18,66,55,45,-100,-100,-100,0,0,100,0.00,40.00,0,-999,0,0.00
2013-4-19,38,36,35,-100,-100,-100,0,0,100,0.00,40.00,0,-999,0,0.00
2013-4-20,44,36,30,-100,-100,-100,0,0,100,0.00,40.00,0,-999,0,0.00
2013-4-21,51,40,30,-100,-100,-100,0,0,100,0.00,40.00,0,-999,0,0.00
2013-4-22,63,54,36,-100,-100,-100,0,0,100,0.00,40.00,0,-999,0,0.00
2013-4-23,62,50,37,-100,-100,-100,0,0,100,0.00,40.00,0,-999,0,0.00
2013-4-24,48,42,36,-100,-100,-100,0,0,100,0.00,40.00,0,-999,0,0.00
2013-4-25,50,44,36,-100,-100,-100,0,0,100,0.00,40.00,0,-999,0,0.00
2013-4-26,65,52,36,-100,-100,-100,0,0,100,0.00,40.00,0,-999,0,0.00
2013-4-27,66,56,45,-100,-100,-100,0,0,100,0.00,40.00,0,-999,0,0.00
2013-4-28,62,56,51,-100,-100,-100,0,0,100,0.00,40.00,0,-999,0,0.00
2013-4-29,71,58,47,-100,-100,-100,0,0,100,0.00,40.00,0,-999,0,0.00
2013-4-30,83,74,58,-100,-100,-100,0,0,100,0.00,40.00,0,-999,0,0.00
2013-5-1,83,72,57,-100,-100,-100,0,0,100,0.00,40.00,0,-999,0,0.00
2013-5-2,67,52,43,-100,-100,-100,0,0,100,0.00,40.00,0,-999,0,0.00
2013-5-3,54,46,40,-100,-100,-100,0,0,100,0.00,40.00,0,-999,0,0.00
2013-5-4,69,60,52,-100,-100,-100,0,0,100,0.00,40.00,0,-999,0,0.00
2013-5-5,70,58,47,-100,-100,-100,0,0,100,0.00,40.00,0,-999,0,0.00
2013-5-6,71,60,51,-100,-100,-100,0,0,100,0.00,40.00,0,-999,0,0.00
2013-5-7,75,60,50,-100,-100,-100,0,0,100,0.00,40.00,0,-999,0,0.00
2013-5-8,78,67,52,-100,-100,-100,0,0,100,0.00,40.00,0,-999,0,0.00
2013-5-9,73,60,56,-100,-100,-100,0,0,100,0.00,40.00,0,-999,0,0.00
2013-5-10,60,52,43,-100,-100,-100,0,0,100,0.00,40.00,0,-999,0,0.00
2013-5-11,62,50,41,-100,-100,-100,0,0,100,0.00,40.00,0,-999,0,0.00
2013-5-12,54,44,35,-100,-100,-100,0,0,100,0.00,40.00,0,-999,0,0.00
2013-5-13,65,53,35,-100,-100,-100,0,0,100,0.00,40.00,0,-999,0,0.00
2013-5-14,92,69,52,-100,-100,-100,0,0,100,0.00,40.00,0,-999,0,0.00
2013-5-15,86,73,63,-100,-100,-100,0,0,100,0.00,40.00,0,-999,0,0.00
2013-5-16,82,67,57,-100,-100,-100,0,0,100,0.00,40.00,0,-999,0,0.00
2013-5-17,79,66,58,-100,-100,-100,0,0,100,0.00,40.00,0,-999,0,0.00
2013-5-18,77,68,60,-100,-100,-100,0,0,100,0.00,40.00,0,-999,0,0.00
2013-5-19,86,74,62,-100,-100,-100,0,0,100,0.00,40.00,0,-999,0,0.00
2013-5-20,88,78,71,-100,-100,-100,0,0,100,0.00,40.00,0,-999,0,0.00
2013-5-21,80,70,62,-100,-100,-100,0,0,100,0.00,40.00,0,-999,0,0.00
2013-5-22,73,68,62,-100,-100,-100,0,0,100,0.00,40.00,0,-999,0,0.00
2013-5-23,62,50,41,-100,-100,-100,0,0,100,0.00,40.00,0,-999,0,0.00
2013-5-24,57,47,38,-100,-100,-100,0,0,100,0.00,40.00,0,-999,0,0.00
2013-5-25,58,49,40,-100,-100,-100,0,0,100,0.00,40.00,0,-999,0,0.00
2013-5-26,64,54,43,-100,-100,-100,0,0,100,0.00,40.00,0,-999,0,0.00
2013-5-27,63,58,54,-100,-100,-100,0,0,100,0.00,40.00,0,-999,0,0.00
2013-5-28,76,68,60,-100,-100,-100,0,0,100,0.00,40.00,0,-999,0,0.00
2013-5-29,83,74,64,-100,-100,-100,0,0,100,0.00,40.00,0,-999,0,0.00
2013-5-30,81,74,67,-100,-100,-100,0,0,100,0.00,40.00,0,-999,0,0.00
2013-5-31,76,68,64,-100,-100,-100,0,0,100,0.00,40.00,0,-999,0,0.00
2013-6-1,75,67,61,-100,-100,-100,0,0,100,0.00,40.00,0,-999,0,0.00
2013-6-2,62,55,49,-100,-100,-100,0,0,100,0.00,40.00,0,-999,0,0.00
2013-6-3,67,55,43,-100,-100,-100,0,0,100,0.00,40.00,0,-999,0,0.00
2013-6-4,71,61,49,-100,-100,-100,0,0,100,0.00,40.00,0,-999,0,0.00
2013-6-5,76,66,55,-100,-100,-100,0,0,100,0.00,40.00,0,-999,0,0.00
2013-6-6,68,61,54,-100,-100,-100,0,0,100,0.00,40.00,0,-999,0,0.00
2013-6-7,69,60,52,-100,-100,-100,0,0,100,0.00,40.00,0,-999,0,0.00
2013-6-8,77,63,50,-100,-100,-100,0,0,100,0.00,40.00,0,-999,0,0.00
2013-6-9,80,72,60,-100,-100,-100,0,0,100,0.00,40.00,0,-999,0,0.00
2013-6-10,78,70,64,-100,-100,-100,0,0,100,0.00,40.00,0,-999,0,0.00
2013-6-11,85,72,61,-100,-100,-100,0,0,100,0.00,40.00,0,-999,0,0.00
2013-6-12,92,76,64,-100,-100,-100,0,0,100,0.00,40.00,0,-999,0,0.00
2013-6-13,72,65,58,-100,-100,-100,0,0,100,0.00,40.00,0,-999,0,0.00
2013-6-14,78,65,54,-100,-100,-100,0,0,100,0.00,40.00,0,-999,0,0.00
2013-6-15,80,69,59,-100,-100,-100,0,0,100,0.00,40.00,0,-999,0,0.00
2013-6-16,82,73,66,-100,-100,-100,0,0,100,0.00,40.00,0,-999,0,0.00
2013-6-17,87,77,65,-100,-100,-100,0,0,100,0.00,40.00,0,-999,0,0.00
2013-6-18,69,63,58,-100,-100,-100,0,0,100,0.00,40.00,0,-999,0,0.00
2013-6-19,79,67,57,-100,-100,-100,0,0,100,0.00,40.00,0,-999,0,0.00
2013-6-20,85,70,63,-100,-100,-100,0,0,100,0.00,40.00,0,-999,0,0.00
2013-6-22,77,73,69,-100,-100,-100,0,0,100,0.00,40.00,0,-999,0,0.00
2013-6-23,83,73,65,-100,-100,-100,0,0,100,0.00,40.00,0,-999,0,0.00
2013-6-24,85,73,67,-100,-100,-100,0,0,100,0.00,40.00,0,-999,0,0.00
2013-6-25,86,77,68,-100,-100,-100,0,0,100,0.00,40.00,0,-999,0,0.00
2013-6-26,80,73,67,-100,-100,-100,0,0,100,0.00,40.00,0,-999,0,0.00
2013-6-27,89,75,66,-100,-100,-100,0,0,100,0.00,40.00,0,-999,0,0.00
2013-6-28,83,72,65,-100,-100,-100,0,0,100,0.00,40.00,0,-999,0,0.00
2013-6-29,70,66,63,-100,-100,-100,0,0,100,0.00,40.00,0,-999,0,0.00
2013-6-30,72,66,62,-100,-100,-100,0,0,100,0.00,40.00,0,-999,0,0.00
2013-7-1,73,67,62,-100,-100,-100,0,0,100,0.00,40.00,0,-999,0,0.00
2013-7-2,66,63,61,-100,-100,-100,0,0,100,0.00,40.00,0,-999,0,0.00
2013-7-3,72,66,61,-100,-100,-100,0,0,100,0.00,40.00,0,-999,0,0.00
2013-7-4,78,69,58,-100,-100,-100,0,0,100,0.00,40.00,0,-999,0,0.00
2013-7-5,81,75,63,-100,-100,-100,0,0,100,0.00,40.00,0,-999,0,0.00
2013-7-6,77,72,69,-100,-100,-100,0,0,100,0.00,40.00,0,-999,0,0.00
2013-7-7,85,74,67,-100,-100,-100,0,0,100,0.00,40.00,0,-999,0,0.00
2013-7-8,84,76,73,-100,-100,-100,0,0,100,0.00,40.00,0,-999,0,0.00
2013-7-9,83,78,74,-100,-100,-100,0,0,100,0.00,40.00,0,-999,0,0.00
2013-7-10,83,75,65,-100,-100,-100,0,0,100,0.00,40.00,0,-999,0,0.00
2013-7-11,77,69,62,-100,-100,-100,0,0,100,0.00,40.00,0,-999,0,0.00
2013-7-12,81,70,55,-100,-100,-100,0,0,100,0.00,40.00,0,-999,0,0.00
2013-7-13,81,71,61,-100,-100,-100,0,0,100,0.00,40.00,0,-999,0,0.00
2013-7-14,85,75,66,-100,-100,-100,0,0,100,0.00,40.00,0,-999,0,0.00
2013-7-15,89,81,72,-100,-100,-100,0,0,100,0.00,40.00,0,-999,0,0.00
2013-7-16,89,80,73,-100,-100,-100,0,0,100,0.00,40.00,0,-999,0,0.00
2013-7-17,93,86,74,-100,-100,-100,0,0,100,0.00,40.00,0,-999,0,0.00
2013-7-18,92,84,75,-100,-100,-100,0,0,100,0.00,40.00,0,-999,0,0.00
2013-7-19,93,85,76,-100,-100,-100,0,0,100,0.00,40.00,0,-999,0,0.00
2013-7-20,87,78,72,-100,-100,-100,0,0,100,0.00,40.00,0,-999,0,0.00
2013-7-21,83,75,68,-100,-100,-100,0,0,100,0.00,40.00,0,-999,0,0.00
2013-7-22,87,74,68,-100,-100,-100,0,0,100,0.00,40.00,0,-999,0,0.00
2013-7-23,77,68,63,-100,-100,-100,0,0,100,0.00,40.00,0,-999,0,0.00
2013-7-24,69,62,54,-100,-100,-100,0,0,100,0.00,40.00,0,-999,0,0.00
2013-7-25,80,65,53,-100,-100,-100,0,0,100,0.00,40.00,0,-999,0,0.00
2013-7-26,72,65,58,-100,-100,-100,0,0,100,0.00,40.00,0,-999,0,0.00
2013-7-27,68,63,57,-100,-100,-100,0,0,100,0.00,40.00,0,-999,0,0.00
2013-7-28,69,58,48,-100,-100,-100,0,0,100,0.00,40.00,0,-999,0,0.00
2013-7-29,76,64,51,-100,-100,-100,0,0,100,0.00,40.00,0,-999,0,0.00
2013-7-30,68,63,57,-100,-100,-100,0,0,100,0.00,40.00,0,-999,0,0.00
2013-7-31,73,68,65,-100,-100,-100,0,0,100,0.00,40.00,0,-999,0,0.00
2013-8-1,80,68,60,-100,-100,-100,0,0,100,0.00,40.00,0,-999,0,0.00
2013-8-2,81,70,61,-100,-100,-100,0,0,100,0.00,40.00,0,-999,0,0.00
2013-8-3,76,71,65,-100,-100,-100,0,0,100,0.00,40.00,0,-999,0,0.00
2013-8-4,75,69,58,-100,-100,-100,0,0,100,0.00,40.00,0,-999,0,0.00
2013-8-5,72,64,58,-100,-100,-100,0,0,100,0.00,40.00,0,-999,0,0.00
2013-8-6,80,71,63,-100,-100,-100,0,0,100,0.00,40.00,0,-999,0,0.00
2013-8-7,83,75,69,-100,-100,-100,0,0,100,0.00,40.00,0,-999,0,0.00
2013-8-8,76,69,66,-100,-100,-100,0,0,100,0.00,40.00,0,-999,0,0.00
2013-8-9,80,71,59,-100,-100,-100,0,0,100,0.00,40.00,0,-999,0,0.00
2013-8-10,81,72,65,-100,-100,-100,0,0,100,0.00,40.00,0,-999,0,0.00
2013-8-11,80,72,62,-100,-100,-100,0,0,100,0.00,40.00,0,-999,0,0.00
2013-8-12,83,70,62,-100,-100,-100,0,0,100,0.00,40.00,0,-999,0,0.00
2013-8-13,69,65,58,-100,-100,-100,0,0,100,0.00,40.00,0,-999,0,0.00
2013-8-14,69,59,54,-100,-100,-100,0,0,100,0.00,40.00,0,-999,0,0.00
2013-8-15,73,61,51,-100,-100,-100,0,0,100,0.00,40.00,0,-999,0,0.00
2013-8-16,76,69,59,-100,-100,-100,0,0,100,0.00,40.00,0,-999,0,0.00
2013-8-17,76,68,57,-100,-100,-100,0,0,100,0.00,40.00,0,-999,0,0.00
2013-8-18,82,70,58,-100,-100,-100,0,0,100,0.00,40.00,0,-999,0,0.00
2013-8-19,84,73,61,-100,-100,-100,0,0,100,0.00,40.00,0,-999,0,0.00
2013-8-20,85,73,64,-100,-100,-100,0,0,100,0.00,40.00,0,-999,0,0.00
2013-8-21,88,76,65,-100,-100,-100,0,0,100,0.00,40.00,0,-999,0,0.00
2013-8-22,74,70,67,-100,-100,-100,0,0,100,0.00,40.00,0,-999,0,0.00
2013-8-23,82,72,62,-100,-100,-100,0,0,100,0.00,40.00,0,-999,0,0.00
2013-8-24,82,70,60,-100,-100,-100,0,0,100,0.00,40.00,0,-999,0,0.00
2013-8-25,86,69,61,-100,-100,-100,0,0,100,0.00,40.00,0,-999,0,0.00
2013-8-26,85,72,63,-100,-100,-100,0,0,100,0.00,40.00,0,-999,0,0.00
2013-8-27,87,76,72,-100,-100,-100,0,0,100,0.00,40.00,0,-999,0,0.00
2013-8-28,82,77,72,-100,-100,-100,0,0,100,0.00,40.00,0,-999,0,0.00
2013-8-29,88,74,69,-100,-100,-100,0,0,100,0.00,40.00,0,-999,0,0.00
2013-8-30,95,75,67,-100,-100,-100,0,0,100,0.00,40.00,0,-999,0,0.00
2013-8-31,82,73,69,-100,-100,-100,0,0,100,0.00,40.00,0,-999,0,0.00
2013-9-1,83,73,67,-100,-100,-100,0,0,100,0.00,40.00,0,-999,0,0.00
2013-9-2,79,69,62,-100,-100,-100,0,0,100,0.00,40.00,0,-999,0,0.00
2013-9-3,76,65,58,-100,-100,-100,0,0,100,0.00,40.00,0,-999,0,0.00
2013-9-4,83,66,55,-100,-100,-100,0,0,100,0.00,40.00,0,-999,0,0.00
2013-9-5,76,67,60,-100,-100,-100,0,0,100,0.00,40.00,0,-999,0,0.00
2013-9-6,86,68,57,-100,-100,-100,0,0,100,0.00,40.00,0,-999,0,0.00
2013-9-7,87,73,61,-100,-100,-100,0,0,100,0.00,40.00,0,-999,0,0.00
2013-9-8,81,74,69,-100,-100,-100,0,0,100,0.00,40.00,0,-999,0,0.00
2013-9-9,93,76,65,-100,-100,-100,0,0,100,0.00,40.00,0,-999,0,0.00
2013-9-10,95,80,71,-100,-100,-100,0,0,100,0.00,40.00,0,-999,0,0.00
2013-9-11,93,80,71,-100,-100,-100,0,0,100,0.00,40.00,0,-999,0,0.00
2013-9-12,80,71,65,-100,-100,-100,0,0,100,0.00,40.00,0,-999,0,0.00
2013-9-13,64,57,51,-100,-100,-100,0,0,100,0.00,40.00,0,-999,0,0.00
2013-9-14,71,55,44,-100,-100,-100,0,0,100,0.00,40.00,0,-999,0,0.00
2013-9-15,69,55,48,-100,-100,-100,0,0,100,0.00,40.00,0,-999,0,0.00
2013-9-16,65,57,51,-100,-100,-100,0,0,100,0.00,40.00,0,-999,0,0.00
2013-9-17,71,59,46,-100,-100,-100,0,0,100,0.00,40.00,0,-999,0,0.00
2013-9-18,67,61,58,-100,-100,-100,0,0,100,0.00,40.00,0,-999,0,0.00
2013-9-19,87,72,65,-100,-100,-100,0,0,100,0.00,40.00,0,-999,0,0.00
2013-9-20,76,68,58,-100,-100,-100,0,0,100,0.00,40.00,0,-999,0,0.00
2013-9-21,68,58,51,-100,-100,-100,0,0,100,0.00,40.00,0,-999,0,0.00
2013-9-22,69,54,48,-100,-100,-100,0,0,100,0.00,40.00,0,-999,0,0.00
2013-9-23,69,54,44,-100,-100,-100,0,0,100,0.00,40.00,0,-999,0,0.00
2013-9-24,71,53,47,-100,-100,-100,0,0,100,0.00,40.00,0,-999,0,0.00
2013-9-25,74,59,49,-100,-100,-100,0,0,100,0.00,40.00,0,-999,0,0.00
2013-9-26,78,61,51,-100,-100,-100,0,0,100,0.00,40.00,0,-999,0,0.00
2013-9-27,79,63,53,-100,-100,-100,0,0,100,0.00,40.00,0,-999,0,0.00
2013-9-28,84,66,53,-100,-100,-100,0,0,100,0.00,40.00,0,-999,0,0.00
2013-9-29,73,63,52,-100,-100,-100,0,0,100,0.00,40.00,0,-999,0,0.00
2013-9-30,76,56,43,-100,-100,-100,0,0,100,0.00,40.00,0,-999,0,0.00
2013-10-1,74,73,71,-100,-100,-100,0,0,100,0.00,40.00,0,-999,0,0.00
2013-10-2,83,70,65,-100,-100,-100,0,0,100,0.00,40.00,0,-999,0,0.00
2013-10-3,78,68,64,-100,-100,-100,0,0,100,0.00,40.00,0,-999,0,0.00
2013-10-4,84,71,63,-100,-100,-100,0,0,100,0.00,40.00,0,-999,0,0.00
2013-10-5,79,72,65,-100,-100,-100,0,0,100,0.00,40.00,0,-999,0,0.00
2013-10-6,60,54,47,-100,-100,-100,0,0,100,0.00,40.00,0,-999,0,0.00
2013-10-7,68,52,44,-100,-100,-100,0,0,100,0.00,40.00,0,-999,0,0.00
2013-10-8,76,54,45,-100,-100,-100,0,0,100,0.00,40.00,0,-999,0,0.00
2013-10-9,72,58,46,-100,-100,-100,0,0,100,0.00,40.00,0,-999,0,0.00
2013-10-10,73,59,47,-100,-100,-100,0,0,100,0.00,40.00,0,-999,0,0.00
2013-10-11,77,64,54,-100,-100,-100,0,0,100,0.00,40.00,0,-999,0,0.00
2013-10-12,74,64,54,-100,-100,-100,0,0,100,0.00,40.00,0,-999,0,0.00
2013-10-13,65,54,45,-100,-100,-100,0,0,100,0.00,40.00,0,-999,0,0.00
2013-10-14,64,50,42,-100,-100,-100,0,0,100,0.00,40.00,0,-999,0,0.00
2013-10-15,63,57,50,-100,-100,-100,0,0,100,0.00,40.00,0,-999,0,0.00
2013-10-16,54,50,42,-100,-100,-100,0,0,100,0.00,40.00,0,-999,0,0.00
2013-10-17,54,49,40,-100,-100,-100,0,0,100,0.00,40.00,0,-999,0,0.00
2013-10-18,48,42,37,-100,-100,-100,0,0,100,0.00,40.00,0,-999,0,0.00
2013-10-19,55,46,40,-100,-100,-100,0,0,100,0.00,40.00,0,-999,0,0.00
2013-10-20,65,52,40,-100,-100,-100,0,0,100,0.00,40.00,0,-999,0,0.00
2013-10-21,54,46,33,-100,-100,-100,0,0,100,0.00,40.00,0,-999,0,0.00
2013-10-22,40,33,27,-100,-100,-100,0,0,100,0.00,40.00,0,-999,0,0.00
2013-10-23,45,36,29,-100,-100,-100,0,0,100,0.00,40.00,0,-999,0,0.00
2013-10-24,41,37,36,-100,-100,-100,0,0,100,0.00,40.00,0,-999,0,0.00
2013-10-25,50,35,26,-100,-100,-100,0,0,100,0.00,40.00,0,-999,0,0.00
2013-10-26,54,45,39,-100,-100,-100,0,0,100,0.00,40.00,0,-999,0,0.00
2013-10-27,55,40,30,-100,-100,-100,0,0,100,0.00,40.00,0,-999,0,0.00
2013-10-28,61,44,32,-100,-100,-100,0,0,100,0.00,40.00,0,-999,0,0.00
2013-10-29,55,43,36,-100,-100,-100,0,0,100,0.00,40.00,0,-999,0,0.00
2013-10-30,62,51,44,-100,-100,-100,0,0,100,0.00,40.00,0,-999,0,0.00
2013-10-31,63,59,50,-100,-100,-100,0,0,100,0.00,40.00,0,-999,0,0.00
2013-11-1,50,46,44,-100,-100,-100,0,0,100,0.00,40.00,0,-999,0,0.00
2013-11-2,47,43,36,-100,-100,-100,0,0,100,0.00,40.00,0,-999,0,0.00
2013-11-3,51,44,34,-100,-100,-100,0,0,100,0.00,40.00,0,-999,0,0.00
2013-11-4,57,49,40,-100,-100,-100,0,0,100,0.00,40.00,0,-999,0,0.00
2013-11-5,55,52,50,-100,-100,-100,0,0,100,0.00,40.00,0,-999,0,0.00
2013-11-6,57,48,34,-100,-100,-100,0,0,100,0.00,40.00,0,-999,0,0.00
2013-11-7,43,34,29,-100,-100,-100,0,0,100,0.00,40.00,0,-999,0,0.00
2013-11-8,48,38,29,-100,-100,-100,0,0,100,0.00,40.00,0,-999,0,0.00
2013-11-9,60,50,43,-100,-100,-100,0,0,100,0.00,40.00,0,-999,0,0.00
2013-11-10,49,40,32,-100,-100,-100,0,0,100,0.00,40.00,0,-999,0,0.00
2013-11-11,47,36,26,-100,-100,-100,0,0,100,0.00,40.00,0,-999,0,0.00
2013-11-12,32,26,21,-100,-100,-100,0,0,100,0.00,40.00,0,-999,0,0.00
2013-11-13,37,27,18,-100,-100,-100,0,0,100,0.00,40.00,0,-999,0,0.00
2013-11-14,51,38,28,-100,-100,-100,0,0,100,0.00,40.00,0,-999,0,0.00
2013-11-15,47,40,35,-100,-100,-100,0,0,100,0.00,40.00,0,-999,0,0.00
2013-11-16,58,49,40,-100,-100,-100,0,0,100,0.00,40.00,0,-999,0,0.00
2013-11-17,66,58,43,-100,-100,-100,0,0,100,0.00,40.00,0,-999,0,0.00
2013-11-18,43,38,29,-100,-100,-100,0,0,100,0.00,40.00,0,-999,0,0.00
2013-11-19,41,32,25,-100,-100,-100,0,0,100,0.00,40.00,0,-999,0,0.00
2013-11-20,42,36,29,-100,-100,-100,0,0,100,0.00,40.00,0,-999,0,0.00
2013-11-21,47,44,40,-100,-100,-100,0,0,100,0.00,40.00,0,-999,0,0.00
2013-11-22,46,37,27,-100,-100,-100,0,0,100,0.00,40.00,0,-999,0,0.00
2013-11-23,26,21,14,-100,-100,-100,0,0,100,0.00,40.00,0,-999,0,0.00
2013-11-24,25,16,10,-100,-100,-100,0,0,100,0.00,40.00,0,-999,0,0.00
2013-11-25,31,26,18,-100,-100,-100,0,0,100,0.00,40.00,0,-999,0,0.00
2013-11-26,35,29,21,-100,-100,-100,0,0,100,0.00,40.00,0,-999,0,0.00
2013-11-27,26,18,11,-100,-100,-100,0,0,100,0.00,40.00,0,-999,0,0.00
2013-11-28,36,26,19,-100,-100,-100,0,0,100,0.00,40.00,0,-999,0,0.00
2013-11-29,36,26,17,-100,-100,-100,0,0,100,0.00,40.00,0,-999,0,0.00
2013-11-30,50,35,27,-100,-100,-100,0,0,100,0.00,40.00,0,-999,0,0.00
2013-12-1,43,34,29,-100,-100,-100,0,0,100,0.00,40.00,0,-999,0,0.00
2013-12-2,40,35,32,-100,-100,-100,0,0,100,0.00,40.00,0,-999,0,0.00
2013-12-3,50,42,35,-100,-100,-100,0,0,100,0.00,40.00,0,-999,0,0.00
2013-12-4,56,50,43,-100,-100,-100,0,0,100,0.00,40.00,0,-999,0,0.00
2013-12-5,43,27,21,-100,-100,-100,0,0,100,0.00,40.00,0,-999,0,0.00
2013-12-6,21,18,10,-100,-100,-100,0,0,100,0.00,40.00,0,-999,0,0.00
2013-12-7,21,14,7,-100,-100,-100,0,0,100,0.00,40.00,0,-999,0,0.00
2013-12-8,25,20,13,-100,-100,-100,0,0,100,0.00,40.00,0,-999,0,0.00
2013-12-9,25,17,3,-100,-100,-100,0,0,100,0.00,40.00,0,-999,0,0.00
2013-12-10,23,13,-3,-100,-100,-100,0,0,100,0.00,40.00,0,-999,0,0.00
2013-12-11,20,15,5,-100,-100,-100,0,0,100,0.00,40.00,0,-999,0,0.00
2013-12-12,21,8,-5,-100,-100,-100,0,0,100,0.00,40.00,0,-999,0,0.00
2013-12-13,29,20,10,-100,-100,-100,0,0,100,0.00,40.00,0,-999,0,0.00
2013-12-14,29,27,24,-100,-100,-100,0,0,100,0.00,40.00,0,-999,0,0.00
2013-12-15,22,14,10,-100,-100,-100,0,0,100,0.00,40.00,0,-999,0,0.00
2013-12-16,19,15,10,-100,-100,-100,0,0,100,0.00,40.00,0,-999,0,0.00
2013-12-17,31,23,17,-100,-100,-100,0,0,100,0.00,40.00,0,-999,0,0.00
2013-12-18,33,21,9,-100,-100,-100,0,0,100,0.00,40.00,0,-999,0,0.00
2013-12-19,40,36,32,-100,-100,-100,0,0,100,0.00,40.00,0,-999,0,0.00
2013-12-20,40,36,33,-100,-100,-100,0,0,100,0.00,40.00,0,-999,0,0.00
2013-12-21,33,31,29,-100,-100,-100,0,0,100,0.00,40.00,0,-999,0,0.00
2013-12-22,32,30,26,-100,-100,-100,0,0,100,0.00,40.00,0,-999,0,0.00
2013-12-23,26,16,1,-100,-100,-100,0,0,100,0.00,40.00,0,-999,0,0.00
2013-12-24,18,13,1,-100,-100,-100,0,0,100,0.00,40.00,0,-999,0,0.00
2013-12-25,27,22,18,-100,-100,-100,0,0,100,0.00,40.00,0,-999,0,0.00
2013-12-26,33,26,13,-100,-100,-100,0,0,100,0.00,40.00,0,-999,0,0.00
2013-12-27,43,33,25,-100,-100,-100,0,0,100,0.00,40.00,0,-999,0,0.00
2013-12-28,51,39,32,-100,-100,-100,0,0,100,0.00,40.00,0,-999,0,0.00
2013-12-29,35,29,17,-100,-100,-100,0,0,100,0.00,40.00,0,-999,0,0.00
2013-12-30,16,10,4,-100,-100,-100,0,0,100,0.00,40.00,0,-999,0,0.00
2013-12-31,15,9,1,-100,-100,-100,0,0,100,0.00,40.00,0,-999,0,0.00
2014-1-1,19,17,14,-100,-100,-100,0,0,100,0.00,40.00,0,-999,0,0.00
2014-1-2,18,13,2,-100,-100,-100,0,0,100,0.00,40.00,0,-999,0,0.00